This is the latest recevied weather packets stored in our database for station/object K5NWZ. If no packets are shown the sender has not sent any weather packets the latest 10 day(s).
| Time | Temp. | Humidity | Pressure | Rain* | Wind** | Luminosity | Snow |
|---|---|---|---|---|---|---|---|
| 1787744461 | 16.11° C | 79% | 1035.1 hPa | 0 mm | - | 0 W/m² | - |
| 1787744155 | 16.11° C | 79% | 1035.1 hPa | 0 mm | - | 0 W/m² | - |
| 1787743851 | 16.11° C | 79% | 1035.3 hPa | 0 mm | - | 0 W/m² | - |
| 1787743550 | 16.11° C | 79% | 1035 hPa | 0 mm | - | 0 W/m² | - |
| 1787743246 | 15.56° C | 80% | 1034.7 hPa | 0 mm | - | 0 W/m² | - |
| 1787742943 | 16.11° C | 79% | 1035.1 hPa | 0 mm | - | 0 W/m² | - |
| 1787742638 | 16.11° C | 78% | 1034.7 hPa | 0 mm | - | 0 W/m² | - |
| 1787742333 | 16.11° C | 78% | 1034.7 hPa | 0 mm | - | 0 W/m² | - |
| 1787742029 | 15.56° C | 77% | 1035 hPa | 0 mm | - | 0 W/m² | - |
| 1787741725 | 16.11° C | 76% | 1035 hPa | 0 mm | - | 0 W/m² | - |
| 1787741420 | 16.11° C | 76% | 1034.6 hPa | 0 mm | - | 0 W/m² | - |
| 1787741119 | 16.11° C | 75% | 1034.7 hPa | 0 mm | - | 0 W/m² | - |
| 1787740813 | 15.56° C | 77% | 1035.1 hPa | 0 mm | - | 0 W/m² | - |
| 1787740512 | 16.11° C | 76% | 1034.6 hPa | 0 mm | - | 0 W/m² | - |
| 1787740207 | 16.11° C | 75% | 1034.8 hPa | 0 mm | - | 0 W/m² | - |
| 1787739903 | 16.11° C | 76% | 1034.7 hPa | 0 mm | - | 0 W/m² | - |
| 1787739599 | 16.11° C | 75% | 1035 hPa | 0 mm | - | 0 W/m² | - |
| 1787739299 | 16.67° C | 74% | 1034.5 hPa | 0 mm | - | 0 W/m² | - |
| 1787738994 | 16.11° C | 75% | 1034.8 hPa | 0 mm | - | 0 W/m² | - |
| 1787738690 | 16.11° C | 75% | 1035.1 hPa | 0 mm | - | 0 W/m² | - |
| 1787738389 | 16.67° C | 75% | 1035 hPa | 0 mm | - | 0 W/m² | - |
| 1787738084 | 16.67° C | 74% | 1035 hPa | 0 mm | - | 0 W/m² | - |
| 1787737779 | 17.22° C | 73% | 1034.7 hPa | 0 mm | - | 0 W/m² | - |
| 1787737478 | 17.22° C | 71% | 1035 hPa | 0 mm | - | 0 W/m² | - |
| 1787737174 | 17.22° C | 71% | 1034.8 hPa | 0 mm | - | 0 W/m² | - |
* Rain latest hour (hover to see other rain measurements)
** Current wind speed in m/s (hover to see current wind gust speed)